This demonstration page uses our WeatherBlox Daily Observations layout. Learn more.

Left ArrowRight Arrow

44.89941, -97.11507

Hourly Observations for January 16, 2021

Temp ( °F °C ) Dew Point ( °F °C ) Humidity (%) Winds ( mph kmh ) Pressure ( in mb ) Visibility ( mi km ) Precip ( " mm )
12:11 am 00:11 Cloudy 21 -6.1 19 -7.2 92 92 NNW 13 20 30.01 1016 10 16 0.00 0.00
12:53 am 00:53 Cloudy 21 -6.1 19 -7.2 92 92 NNW 16 26 29.95 1014 10 16 0.00 0.00
1:53 am 01:53 Cloudy 20 -6.7 19 -7.2 96 96 N 15 24 29.95 1014 10 16 0.00 0.00
2:53 am 02:53 Cloudy 19 -7.2 17 -8.3 92 92 N 18 30 29.96 1015 9 14 0.00 0.00
3:53 am 03:53 Cloudy 19 -7.2 17 -8.3 92 92 NNW 15 24 29.96 1015 9 14 0.00 0.00
4:53 am 04:53 Cloudy 19 -7.2 17 -8.3 92 92 NW 14 22 29.93 1014 10 16 0.00 0.00
5:53 am 05:53 Cloudy 19 -7.2 18 -7.8 96 96 N 15 24 29.93 1013 10 16 0.00 0.00
6:53 am 06:53 Cloudy 19 -7.2 18 -7.8 96 96 NW 12 19 29.93 1014 10 16 0.00 0.00
7:53 am 07:53 Cloudy 19 -7.2 18 -7.8 96 96 NW 13 20 29.94 1014 10 16 0.00 0.00
8:53 am 08:53 Cloudy 20 -6.7 18 -7.8 92 92 NNW 15 24 29.96 1014 10 16 0.00 0.00
9:53 am 09:53 Cloudy 21 -6.1 18 -7.8 88 88 NNW 14 22 29.96 1015 10 16 0.00 0.00
10:53 am 10:53 Cloudy 21 -6.1 19 -7.2 92 92 NNW 12 19 29.96 1015 10 16 0.00 0.00
11:53 am 11:53 Cloudy 22 -5.6 19 -7.2 89 89 NW 14 22 29.94 1014 10 16 0.00 0.00
12:38 pm 12:38 Cloudy 23 -5 19 -7.2 85 85 NW 16 26 29.98 1015 10 16 0.00 0.00
12:53 pm 12:53 Cloudy 23 -5 20 -6.7 88 88 NW 14 22 29.93 1014 10 16 0.00 0.00
1:53 pm 13:53 Cloudy 23 -5 20 -6.7 88 88 NW 14 22 29.93 1014 10 16 0.00 0.00
2:53 pm 14:53 Mostly Cloudy 24 -4.4 20 -6.7 84 84 NW 15 24 29.92 1013 10 16 0.00 0.00
3:03 pm 15:03 Partly Cloudy 24 -4.4 20 -6.7 84 84 NW 13 20 29.96 1015 10 16 0.00 0.00
3:17 pm 15:17 Mostly Cloudy 24 -4.4 20 -6.7 84 84 NW 12 19 29.96 1015 10 16 0.00 0.00
3:29 pm 15:29 Partly Cloudy 24 -4.4 20 -6.7 84 84 NW 13 20 29.96 1015 10 16 0.00 0.00
3:53 pm 15:53 Mostly Cloudy 24 -4.4 20 -6.7 84 84 WNW 9 15 29.93 1014 10 16 0.00 0.00
4:28 pm 16:28 Cloudy 24 -4.4 20 -6.7 84 84 WNW 12 19 29.96 1015 10 16 0.00 0.00
4:53 pm 16:53 Cloudy 24 -4.4 20 -6.7 84 84 WNW 12 19 29.93 1014 10 16 0.00 0.00
5:07 pm 17:07 Partly Cloudy 24 -4.4 20 -6.7 84 84 NW 9 15 29.96 1015 10 16 0.00 0.00
5:53 pm 17:53 Mostly Clear 22 -5.6 19 -7.2 89 89 W 5 7 29.92 1013 10 16 0.00 0.00
6:53 pm 18:53 Cloudy 24 -4.4 21 -6.1 88 88 W 6 9 29.91 1013 10 16 0.00 0.00
7:53 pm 19:53 Cloudy 23 -5 20 -6.7 88 88 W 3 6 29.89 1012 10 16 0.00 0.00
8:53 pm 20:53 Cloudy 22 -5.6 20 -6.7 92 92 SW 6 9 29.87 1012 10 16 0.00 0.00
9:53 pm 21:53 Cloudy 24 -4.4 21 -6.1 88 88 WSW 3 6 29.86 1011 10 16 0.00 0.00
10:53 pm 22:53 Mostly Cloudy 26 -3.3 21 -6.1 81 81 W 9 15 29.86 1011 10 16 0.00 0.00
11:53 pm 23:53 Mostly Clear 26 -3.3 21 -6.1 81 81 WNW 9 15 29.86 1011 10 16 0.00 0.00

Powered by AerisWeather